| time (UTC) | temp F | wind direction | speed MPH | gust MPH | rain 1hr in | rain 24hr in | rain mn in | humidity % | barometer mb |
| 20260505173022 | 51 | 336 | 2.0 | 14.0 | 0.00 | 0.19 | 0.19 | 80 | 1012.1 |
| 20260505171521 | 51 | 11 | 4.0 | 14.0 | 0.00 | 0.19 | 0.19 | 81 | 1010.9 |
| 20260505170020 | 51 | 47 | 4.0 | 12.0 | 0.00 | 0.19 | 0.19 | 81 | 1010.8 |
| 20260505164519 | 51 | 37 | 1.0 | 14.0 | 0.00 | 0.19 | 0.19 | 83 | 1010.7 |
| 20260505163018 | 50 | 1 | 6.0 | 16.0 | 0.00 | 0.19 | 0.19 | 83 | 1011.1 |
| 20260505161534 | 50 | 234 | 4.0 | 11.0 | 0.00 | 0.19 | 0.19 | 86 | 1011.0 |
| 20260505153014 | 52 | 328 | 4.0 | 13.0 | 0.00 | 0.19 | 0.19 | 78 | 1011.7 |
| 20260505151507 | 53 | 6 | 5.0 | 12.0 | 0.00 | 0.19 | 0.19 | 78 | 1010.9 |
| 20260505140106 | 52 | 1 | 6.0 | 21.0 | 0.00 | 0.19 | 0.19 | 79 | 1009.7 |
| 20260505130111 | 51 | 332 | 6.0 | 20.0 | 0.00 | 0.19 | 0.19 | 85 | 1009.8 |
| 20260505124555 | 51 | 2 | 2.0 | 14.0 | 0.00 | 0.19 | 0.19 | 87 | 1009.0 |
| 20260505123057 | 51 | 20 | 7.0 | 17.0 | 0.00 | 0.19 | 0.19 | 87 | 1009.0 |
| 20260505121556 | 50 | 37 | 6.0 | 17.0 | 0.00 | 0.19 | 0.19 | 90 | 1009.1 |
| 20260505114551 | 49 | 344 | 3.0 | 9.0 | 0.00 | 0.19 | 0.19 | 95 | 1009.4 |
| 20260505113058 | 49 | 77 | 7.0 | 15.0 | 0.00 | 0.19 | 0.19 | 95 | 1008.7 |
| 20260505111548 | 49 | 320 | 4.0 | 13.0 | 0.00 | 0.19 | 0.19 | 95 | 1008.2 |
| 20260505101545 | 50 | 360 | 10.0 | 22.0 | 0.19 | 0.19 | 0.19 | 94 | 1007.3 |
| 20260505100036 | 51 | 340 | 14.0 | 32.0 | 0.19 | 0.19 | 0.19 | 93 | 1008.6 |
| 20260505094531 | 52 | 314 | 7.0 | 17.0 | 0.10 | 0.10 | 0.10 | 92 | 1009.7 |
| 20260505093027 | 54 | 11 | 10.0 | 35.0 | 0.06 | 0.06 | 0.06 | 89 | 1008.1 |
| 20260505091522 | 62 | 341 | 18.0 | 33.0 | 0.00 | 0.00 | 0.00 | 67 | 1006.7 |
| 20260505090119 | 65 | 360 | 1.0 | 12.0 | 0.00 | 0.00 | 0.00 | 79 | 1005.0 |
| 20260505084516 | 62 | 1 | 1.0 | 5.0 | 0.00 | 0.00 | 0.00 | 88 | 1003.9 |
| 20260505083013 | 63 | 234 | 0.0 | 0.0 | 0.00 | 0.00 | 0.00 | 86 | 1003.6 |
| 20260505081509 | 65 | 220 | 0.0 | 1.0 | 0.00 | 0.00 | 0.00 | 81 | 1003.5 |
| 20260505080018 | 67 | 240 | 0.0 | 2.0 | 0.00 | 0.00 | 0.00 | 73 | 1003.5 |
| 20260505074505 | 68 | 225 | 0.0 | 2.0 | 0.00 | 0.00 | 0.00 | 71 | 1003.6 |
| 20260505073004 | 68 | 246 | 0.0 | 2.0 | 0.00 | 0.00 | 0.00 | 71 | 1003.9 |
| 20260505071504 | 68 | 217 | 0.0 | 3.0 | 0.00 | 0.00 | 0.00 | 71 | 1004.2 |
| 20260505070003 | 68 | 195 | 0.0 | 1.0 | 0.00 | 0.00 | 0.00 | 70 | 1004.4 |
| 20260505064502 | 69 | 240 | 0.0 | 1.0 | 0.00 | 0.00 | 0.00 | 70 | 1004.8 |
| 20260505063002 | 69 | 214 | 0.0 | 4.0 | 0.00 | 0.00 | 0.00 | 70 | 1004.8 |
| 20260505061559 | 69 | 200 | 1.0 | 7.0 | 0.00 | 0.00 | 0.00 | 70 | 1004.6 |
| 20260505060058 | 68 | 150 | 0.0 | 4.0 | 0.00 | 0.00 | 0.00 | 72 | 1004.3 |
| 20260505054557 | 67 | 187 | 0.0 | 5.0 | 0.00 | 0.00 | 0.00 | 73 | 1003.5 |
| 20260505053053 | 67 | 174 | 0.0 | 1.0 | 0.00 | 0.00 | 0.00 | 73 | 1003.2 |
| 20260505051549 | 67 | 224 | 0.0 | 1.0 | 0.00 | 0.00 | 0.00 | 73 | 1003.7 |
| 20260505041542 | 69 | 233 | 0.0 | 1.0 | 0.00 | 0.00 | 0.00 | 68 | 1004.4 |
| 20260505040042 | 70 | 204 | 0.0 | 0.0 | 0.00 | 0.00 | 0.00 | 67 | 1004.8 |
| 20260505034542 | 71 | 266 | 0.0 | 1.0 | 0.00 | 0.00 | 0.00 | 65 | 1004.9 |
| 20260505033043 | 71 | 253 | 0.0 | 1.0 | 0.00 | 0.00 | 0.00 | 64 | 1004.9 |
| 20260505031552 | 72 | 245 | 0.0 | 1.0 | 0.00 | 0.00 | 0.00 | 63 | 1004.7 |
| 20260505030041 | 73 | 189 | 0.0 | 1.0 | 0.00 | 0.00 | 0.00 | 62 | 1004.5 |
| 20260505024547 | 73 | 207 | 0.0 | 3.0 | 0.00 | 0.00 | 0.00 | 61 | 1004.4 |
| 20260505023044 | 74 | 145 | 0.0 | 5.0 | 0.00 | 0.00 | 0.00 | 59 | 1004.2 |
| 20260505021537 | 74 | 178 | 0.0 | 6.0 | 0.00 | 0.00 | 0.00 | 60 | 1003.9 |
| 20260505020037 | 74 | 209 | 0.0 | 3.0 | 0.00 | 0.00 | 0.00 | 60 | 1003.6 |
| 20260505014558 | 75 | 224 | 1.0 | 6.0 | 0.00 | 0.00 | 0.00 | 60 | 1003.3 |
| 20260505013036 | 75 | 276 | 0.0 | 2.0 | 0.00 | 0.00 | 0.00 | 59 | 1003.3 |
| 20260505011541 | 76 | 239 | 0.0 | 4.0 | 0.00 | 0.00 | 0.00 | 58 | 1003.1 |
| 20260505010035 | 76 | 197 | 0.0 | 3.0 | 0.00 | 0.00 | 0.00 | 58 | 1002.6 |
| 20260505004534 | 76 | 131 | 0.0 | 4.0 | 0.00 | 0.00 | 0.00 | 58 | 1002.5 |
| 20260505003034 | 77 | 172 | 1.0 | 5.0 | 0.00 | 0.00 | 0.00 | 57 | 1002.4 |
| 20260505001538 | 78 | 238 | 0.0 | 7.0 | 0.00 | 0.00 | 0.00 | 57 | 1002.5 |
| 20260505000032 | 78 | 271 | 1.0 | 10.0 | 0.00 | 0.00 | 0.00 | 56 | 1002.3 |
| 20260504234531 | 79 | 103 | 2.0 | 8.0 | 0.00 | 0.00 | 0.00 | 54 | 1002.4 |
| 20260504233030 | 79 | 224 | 5.0 | 11.0 | 0.00 | 0.00 | 0.00 | 53 | 1002.4 |
| 20260504231529 | 80 | 232 | 4.0 | 10.0 | 0.00 | 0.00 | 0.00 | 53 | 1002.6 |
| 20260504230028 | 81 | 227 | 1.0 | 8.0 | 0.00 | 0.00 | 0.00 | 51 | 1002.7 |
| 20260504224535 | 81 | 211 | 3.0 | 12.0 | 0.00 | 0.00 | 0.00 | 51 | 1002.5 |
| 20260504223027 | 82 | 188 | 3.0 | 9.0 | 0.00 | 0.00 | 0.00 | 50 | 1002.5 |
| 20260504221527 | 82 | 357 | 5.0 | 11.0 | 0.00 | 0.00 | 0.00 | 49 | 1002.4 |
| 20260504220025 | 82 | 207 | 7.0 | 19.0 | 0.00 | 0.00 | 0.00 | 48 | 1002.4 |
| 20260504214526 | 81 | 244 | 7.0 | 17.0 | 0.00 | 0.00 | 0.00 | 49 | 1002.6 |
| 20260504213024 | 82 | 237 | 4.0 | 11.0 | 0.00 | 0.00 | 0.00 | 49 | 1002.8 |
| 20260504211521 | 82 | 131 | 5.0 | 15.0 | 0.00 | 0.00 | 0.00 | 49 | 1002.7 |
| 20260504210033 | 82 | 230 | 6.0 | 17.0 | 0.00 | 0.00 | 0.00 | 50 | 1002.8 |
| 20260504204529 | 82 | 151 | 5.0 | 15.0 | 0.00 | 0.00 | 0.00 | 48 | 1002.9 |
| 20260504203024 | 83 | 156 | 6.0 | 14.0 | 0.00 | 0.00 | 0.00 | 47 | 1003.0 |
| 20260504201515 | 82 | 215 | 6.0 | 14.0 | 0.00 | 0.00 | 0.00 | 49 | 1003.2 |
| 20260504200013 | 81 | 142 | 2.0 | 13.0 | 0.00 | 0.00 | 0.00 | 53 | 1003.4 |
| 20260504194514 | 81 | 179 | 5.0 | 17.0 | 0.00 | 0.00 | 0.00 | 50 | 1003.4 |
| 20260504193012 | 81 | 153 | 6.0 | 13.0 | 0.00 | 0.00 | 0.00 | 50 | 1003.6 |
| 20260504191509 | 81 | 226 | 4.0 | 12.0 | 0.00 | 0.00 | 0.00 | 52 | 1003.7 |
| 20260504190006 | 79 | 243 | 2.0 | 11.0 | 0.00 | 0.00 | 0.00 | 55 | 1003.8 |
| 20260504184505 | 77 | 329 | 7.0 | 15.0 | 0.00 | 0.00 | 0.00 | 56 | 1003.6 |
| 20260504183008 | 76 | 295 | 4.0 | 13.0 | 0.00 | 0.00 | 0.00 | 56 | 1003.3 |
| 20260504181502 | 77 | 174 | 8.0 | 18.0 | 0.00 | 0.00 | 0.00 | 54 | 1003.4 |
| 20260504180121 | 77 | 206 | 3.0 | 16.0 | 0.00 | 0.00 | 0.00 | 54 | 1004.1 |
| 20260504174558 | 77 | 160 | 4.0 | 15.0 | 0.00 | 0.00 | 0.00 | 54 | 1004.0 |